Regional Weather Roundup
Issued by NWS Mobile, AL

Home | Current Version | Previous Version | Text Only | Print | Product List | Glossary On
Versions: 1 2 3 4 5 6 7 8 9 10 11 12 13 14 15 16 17 18 19 20 21 22 23 24 25 26 27 28 29 30 31 32 33 34 35 36 37 38 39 40 41 42 43 44 45 46 47 48 49
000
ASUS44 KMOB 202110
RWRMOB
REGIONAL WEATHER ROUNDUP
NATIONAL WEATHER SERVICE MOBILE AL
400 PM CDT MON OCT 20 2014

NOTE: "FAIR" INDICATES FEW OR NO CLOUDS BELOW 12,000 FEET WITH NO
      SIGNIFICANT WEATHER AND/OR OBSTRUCTIONS TO VISIBILITY.

  * THESE STATIONS ARE PART OF THE UNIVERSITY OF SOUTH ALABAMA
    MESONET AND ARE NOT UNDER NWS OR FAA QUALITY CONTROL.

ALZ061>064-202200-
COASTAL ALABAMA

CITY           SKY/WX    TMP DP  RH WIND       PRES   REMARKS
MOBILE REG APT MOSUNNY   77  49  37 NW7       30.00F
BROOKLEY FIELD SUNNY     77  53  43 E3        30.00F
USA CAMPUS*      N/A     75  48  38 N3        29.98S
DOG RIVER*     NOT AVBL


CITY           SKY/WX    TMP DP  RH WIND       PRES   REMARKS
MOUNT VERNON*    N/A     75  50  41 CALM      30.00S
SARALAND*      NOT AVBL
BAY MINETTE*   NOT AVBL
LOXLEY*          N/A     79  50  36 CALM      29.99S
ROBERTSDALE*     N/A     79  52  38 CALM      29.98S
FAIRHOPE*        N/A     79  45  29 NW3       29.98F
ELBERTA*         N/A     79  55  44 W3        29.97F
FOLEY*           N/A     75  50  41 N5        29.96S
GRAND BAY*       N/A     82  50  32 N2        29.97F
DAUPHIN ISLND* NOT AVBL
BON SCOUR NWR* NOT AVBL
GULF SHORES    SUNNY     76  60  58 SW7       29.98F

$$

ALZ051>060-202200-
INTERIOR SOUTHWEST AND SOUTH CENTRAL ALABAMA

CITY           SKY/WX    TMP DP  RH WIND       PRES   REMARKS
GREENVILLE     MOSUNNY   76  48  37 W5        29.99F
EVERGREEN      MOSUNNY   78  46  32 W3        30.00F
CASTLEBERRY*   NOT AVBL
ATMORE*          N/A     79  48  34 NW2       30.00F
DIXIE*           N/A     77  50  38 CALM      29.97F
ANDALUSIA/OPP  MOSUNNY   81  49  32 W5        29.99F
ANDALUSIA*       N/A     77  52  41 W6        30.00F
FLORALA APT    MOSUNNY   78  53  41 VRB5      30.00F
FLORALA*         N/A     75  50  41 N5        29.96S

$$

FLZ001>006-202200-
WESTERN FLORIDA PANHANDLE

CITY           SKY/WX    TMP DP  RH WIND       PRES   REMARKS
PENSACOLA      MOSUNNY   77  57  50 VRB7      29.98F
NAS PENSACOLA  MOSUNNY   76  60  57 SW8       29.97F
MILTON         PTSUNNY   78  50  37 CALM      29.98F
WHTNG S FIELD  PTSUNNY   81  55  40 VRB7      29.98F


CITY           SKY/WX    TMP DP  RH WIND       PRES   REMARKS
WALNUT HILL*   NOT AVBL
JAY*             N/A     77  52  41 NW2       29.99F
DUKE FIELD     MOSUNNY   80  54  40 VRB7      29.97F
CRESTVIEW      MOSUNNY   79  55  43 CALM      29.99F
VALPARAISO     PTSUNNY   76  62  61 S8        29.97F
DESTIN         SUNNY     77  63  61 S5        29.97F

$$

MSZ076-079-202200-
INTERIOR SOUTHEAST MISSISSIPPI

CITY           SKY/WX    TMP DP  RH WIND       PRES   REMARKS
LEAKESVILLE*     N/A     77  45  31 N3        30.01S
AGRICOLA*      NOT AVBL

$$

MARINE OBSERVATIONS

STATION/POSITION TIME  TEMP    WIND        PRES    WAVE
                       AIR SEA DIR/SP/G            HT/PER
                 (UTC) (F)     (DEG/KT/KT) (MB)    (FT/S)
PASCAGOULA       2100   76     250/  7/  9 1015.3F
PETIT BOIS ISLND 2100   75     190/  4/  5 1015.9F
GRAND BAY        2000   73     180/  7     1017.0S
KATRINA CUT      1900   72     100/  2     1016.6F
CEDAR POINT      2000   75     110/  3     1016.3F
E DAUPHIN ISLAND 1954   73      80/  3/  3 1015.9F
MIDDLE BAY LIGHT 2000   74     160/  4     1014.9F
USCG MOBILE BAY  2100   74 74  110/  5/  6 1014.3F
STATE DOCKS      2100   77 76              1015.3F
MEAHER PARK      2000   76     220/  4     1015.2F
WEEKS BAY        2000   78                   N/A
FORT MORGAN      2100   75      20/  3/  4 1015.0F
12 S ORANGE BCH  2100   75 79   CALM  /  2 1015.2F   1/ 4
PENSACOLA BAY    2100   77 74  170/  3/  5 1015.4F
64 S DAUPHIN ISL 2027   76 81   30/  4/  8 1015.6F
67 S FORT MORGAN 2000   77                 1014.9F

$$

SELECTED LOCATIONS ACROSS THE REGION

CITY           SKY/WX    TMP DP  RH WIND       PRES   REMARKS
NEW ORLEANS    MOSUNNY   77  54  44 NE6       29.99F
GULFPORT       MOSUNNY   79  48  33 N3        29.98F
PASCAGOULA AP  SUNNY     79  47  32 CALM      29.98F
PASCAGOULA*      N/A     75  57  53 SW6       29.98F
HATTIESBURG    SUNNY     77  47  34 VRB5      30.01F
LAUREL         SUNNY     75  45  33 N6        30.03F
MERIDIAN       MOSUNNY   75  47  36 N5        30.01S
JACKSON        MOSUNNY   76  46  34 NW5       30.02F
MONTGOMERY     SUNNY     77  49  37 NW8       30.00F
TROY           MOSUNNY   76  48  37 W6        30.00S
KINSTON*       NOT AVBL
GENEVA*          N/A     77  52  41 CALM      29.99F
ASHFORD*         N/A     77  52  41 W6        30.00F
DOTHAN         PTSUNNY   75  53  46 SW5       30.02S
PANAMA CITY    MOSUNNY   80  57  45 SE5       29.96F

$$




USA.gov is the U.S. government's official web portal to all federal, state and local government web resources and services.